1st Responders/1st Detectors/Storm Spotters Weather Summary for Simpson County, KY

Forecast Maps


Reg. NEXRAD Animation


National Fire Danger: Day 1 & 2 Map

Current NWS Watch/Warnings

SPC Convective Day 1 Outlook


Day 2 Outlook

(Click images to enlarge|Page will refresh every 5 minutes)
UK Ag. Weather Center Desktop Severe Weather Service[HERE]
Simpson County, KY Hazardous Weather Outlook Webcast
(9 AM to 9 PM Mon-Fri)
[Fast]
[Dial-up]


UKAWC 1st Detectors/1st Responders Precision Weather Forecast For SIMPSON County, Kentucky
(based on the NWS County Digital Forecast)

ISSUED AT 10:00 UTC ON SATURDAY DEC 16 2017
DAY SATURDAY
CDT 3HR 6A 7A 8A 9A 10A 11A NOON 1P 2P 3P 4P 5P 6P
MAX/MIN -- 29° -- -- -- -- -- -- -- -- -- -- 52°
TEMP 29° 31° 32° 36° 40° 43° 47° 49° 52° 52° 52° 49° 45°
SKY COVER 3% 4% 4% 5% 5% 6% 6% 7% 8% 10% 11% 12% 14%
Clouds
DEW PT 25° 25° 25° 27° 27° 29° 29° 31° 31° 31° 31° 31° 29°
RH 81% 78% 74% 69% 62% 54% 50% 47% 44% 43% 44% 47% 53%
POP 12HR -- 0% -- -- -- -- -- -- -- -- -- -- --
RAIN/SNOW (liq.equ) -- 0.00in -- -- -- -- -- 0.00in -- -- -- -- --
SNOWFALL -- 0in -- -- -- -- -- 0in -- -- -- -- --
WIND SPEED(MPH) 8 8 9 10 13 14 15 15 15 14 13 10 8
WIND Gust(MPH) 13 13 14 15 18 22 23 23 23 23 21 15 13
WIND DIR S S S S S SW SW SW SW SW SW SW S
DEW Frost Frost Frost -- -- -- -- -- -- -- -- -- --
HeatIndex 21 22 24 27 32 37 47 49 52 52 52 49 45
Rain Showers -- -- -- -- -- -- -- -- -- -- -- -- --
WIND CHILL 21° 24° 24° 29° 33° 36° -- -- -- -- -- -- 41°
SPRAY COND
DRY COND
LIVESTOCK COLDSTRESS



DAY SUNDAY MONDAY TUESDAY WEDNESDAY THURSDAY FRIDAY
CDT 6HR 7P 8P 9P 10P 11P MIDN 1A 2A 3A 4A 5A 6A 7A 8A 9A 10A 11A NOON 1P 2P 3P 4P 5P 7P 10P 1A 4A 7A 10A 1P 4P 7P 1A 7A 1P 7P 1A 7A 1P 7P 1A 7A 1P 7P 1A 7A 1P 7P
MAX/MIN -- -- -- -- -- -- -- -- -- -- -- -- 34° -- -- -- -- -- -- -- -- -- 47° -- -- -- -- 41° -- -- 56° -- -- 45° 58° -- -- 36° 52° -- -- 36° 58° -- -- 41° 52° --
TEMP 43° 40° 38° 38° 36° 36° 34° 34° 34° 34° 36° 36° 38° 38° 40° 40° 41° 43° 43° 45° 47° 47° 45° 45° 43° 43° 43° 43° 47° 54° 56° 50° 47° 45° 58° 54° 45° 38° 50° 45° 38° 38° 56° 52° 47° 45° 49° 41°
SKY COVER 15% 22% 29% 36% 44% 51% 58% 64% 70% 76% 83% 89% 95% 97% 98% 100% 100% 100% 100% 99% 98% 97% 96% 93% 90% 86% 87% 83% 71% 71% 57% 64% 69% 77% 63% 49% 27% 9% 14% 19% 17% 26% 38% 42% 79% 86% 82% 70%
Clouds
DEW PT 29° 29° 29° 29° 29° 29° 29° 29° 29° 29° 31° 31° 31° 31° 32° 34° 34° 36° 36° 38° 38° 40° 40° 40° 40° 40° 41° 41° 45° 45° 45° 45° 45° 45° 45° 40° 34° 31° 29° 29° 29° 34° 43° 43° 41° 41° 36° 31°
RH 59% 66% 69% 73% 75% 79% 81% 81% 81% 81% 81% 78% 75% 75% 76% 75% 76% 76% 76% 73% 73% 76% 82% 86% 89% 89% 96% 96% 88% 71% 64% 80% 93% 100% 59% 61% 68% 75% 43% 51% 72% 82% 62% 68% 82% 88% 60% 64%
POP 12HR 0% -- -- -- -- -- -- -- -- -- -- -- 4% -- -- -- -- -- -- -- -- -- -- 85% -- -- -- 8% -- -- -- 9% -- 19% -- 18% -- 17% -- 1% -- 3% -- 7% -- 58% -- 55%
RAIN/SNOW (liq.equ) 0.00in -- -- -- -- -- 0.00in -- -- -- -- -- 0.00in -- -- -- -- -- 0.12in -- -- -- -- 0.01in -- 0.00in -- 0.00in -- 0.00in -- 0.00in -- -- -- -- -- -- -- -- -- -- -- -- -- -- -- --
SNOWFALL 0in -- -- -- -- -- 0in -- -- -- -- -- 0in -- -- -- -- -- 0in -- -- -- -- 0in -- 0in -- 0in -- 0in -- 0in -- -- -- -- -- -- -- -- -- -- -- -- -- -- -- --
WIND SPEED(MPH) 7 7 6 6 7 7 7 7 7 7 6 6 6 7 7 7 8 9 9 9 9 8 7 7 7 6 6 5 7 8 7 6 7 7 8 7 6 5 5 5 6 7 14 13 10 8 8 8
WIND DIR S S S S S S S S S S S S S S S S S S S S S S S S S S S S SW SW SW SW SW W W NW N N NE SE S S S S SW SW W NW
HeatIndex 38 35 34 33 31 30 29 29 29 29 31 32 33 34 35 35 36 37 38 45 47 47 45 41 40 40 39 40 47 54 56 50 47 45 58 54 41 35 50 45 33 34 56 52 47 40 49 36
Rain Showers -- -- -- -- -- -- -- -- -- -- -- -- Periods of Periods of Periods of Periods of Periods of Periods of Chance Chance Chance Chance Chance -- -- -- -- -- -- -- -- -- Slight Chance Slight Chance -- Slight Chance -- -- -- -- -- -- -- -- Likely Likely Chance Chance
WIND CHILL 39° 35° 34° 34° 30° 30° 28° 28° 28° 28° 31° 31° 34° 33° 35° 35° 36° 38° 38° 40° -- -- 41° 41° 39° 39° 39° 40° -- -- -- -- -- 41° -- -- 42° 35° -- 43° 34° 33° -- -- -- 41° -- 36°
SPRAY COND
DRY COND
LIVESTOCK COLDSTRESS

Click on individual weather variable above in left-hand column (ie., TEMP, RH, QPF 12HR) to view state forecast maps






NWS 48 Hr. Forecast Maps,

Regional Hourly Observations For SIMPSON County, Kentucky
Issued at 500 AM EST SAT DEC 16 2017
WESTERN AND SOUTH CENTRAL KENTUCKY
  
CITY           SKY/WX    TMP DP  RH WIND       PRES   REMARKS
PADUCAH        PTCLDY    34  25  69 S6        30.13F WCI  29          
HENDERSON      CLEAR     32  27  81 S9        30.12F WCI  24          
OWENSBORO      CLEAR     31  26  82 S6        30.14S WCI  25          
HOPKINSVILLE   CLEAR     33  25  73 S10       30.16F WCI  24          
BOWLING GREEN  CLEAR     31  25  78 S7        30.18F WCI  24          
GLASGOW        CLEAR     30  24  78 S5        30.17F WCI  25          


Current NOWCAST not available:
Nowcasts are not issued routinely during fair weather. Only when
precipitation or other significant weather is occuring in this county will these
forecasts be issued. Currently, there is no short term forecast in effect.


Fire Weather Forecast For SIMPSON County, KY
Provided by the National Weather Service:

Issued at: Sat Dec 16 05:05:01 EST 2017

319 AM EST Sat Dec 16 2017 /219 AM CST Sat Dec 16 2017/

                      Today        Tonight      Sun          

CLOUD COVER           MClear       PCldy        Cloudy       
PRECIP TYPE           NONE         NONE         showers      
CHANCE PRECIP (%)     0            0            80           
TEMP (24H TREND)      53 (+14)     34 (+5)      46           
RH % (24H TREND)      42 (-8)      84 (+1)      70           
20FTWND-VAL/AM(MPH)   SW  9 G19                 S  5         
20FTWND-RDG/PM(MPH)   SW 10 G19    S  5         S  5         
PRECIP AMOUNT         0.00         0.00         0.12         
MIXING HGT(FT-AGL/MSL)3049                      2123         
TRANSPORT WND (MPH)   SW 22                     S 22         
VENT RATE (KT-FT)     60840                     40337        
DISPERSION            Good                      Fair         
DSI                   STBL         STBL         STBL         
LAL                   1            1            1            
HAINES INDEX          4            4            3            
ADI EARLY             39 FAIR      5 VERY POOR  27 FAIR      
ADI LATE              50 GEN GOOD  6 VERY POOR  34 FAIR      
MAX LVORI EARLY       4            4            4            
MAX LVORI LATE        3            5            4            

REMARKS...ADI IS ATMOSPHERIC DISPERSION INDEX BY LAVDAS.        
LVORI IS LOW VISIBILITY OCCURRENCE RISK INDEX.

.MONDAY...Mostly cloudy. Lows around 40. Highs in the mid 50s.
South winds around 5 mph. 
.TUESDAY...Mostly cloudy. Lows in the mid 40s. Highs in the upper
50s. Southwest winds around 5 mph. 
.WEDNESDAY...Partly cloudy. Lows in the upper 30s. Highs in the
lower 50s. East winds up to 5 mph. 
.THURSDAY...Partly cloudy. Lows in the mid 30s. Highs in the mid
50s. South winds up to 10 mph. 
.FRIDAY...Mostly cloudy with a 50 percent chance of rain showers.
Lows around 40. Highs in the lower 50s. Northwest winds 5 to
10 mph. 

SPC's Fire Weather Web Tool (Excellent!), SPC's Fire Weather Outlooks, NWS Fire Weather WEB, Fire Danger Class Map,
Keetch-Byram Drought Index, ROMAN Web, Haines Index ,
WFAS's 10-hr Dead Fuel Moist., WFAS's 100-hr Dead Fuel Moist., Probablity of Ignition, Visual blackness Map, Palmer Drought Index, HPC's Rainfall Forecast Maps


Hazardous Weather Outlook For SIMPSON County, Kentucky
257 AM EST Sat Dec 16 2017 /157 AM CST Sat Dec 16 2017/

 DAY ONE  Today and Tonight.

No hazardous weather is expected at this time. 

 DAYS TWO THROUGH SEVEN  Sunday through Friday.

No hazardous weather is expected at this time. 

 SPOTTER INFORMATION STATEMENT  

Spotter activation is not anticipated.

Latest SIMPSON County, Kentucky Watches, Warnings and Advisories.
Additional Drought Info.: UKAWC Drought Page, Kentucky Drought Watch


7-Day Forecast For SIMPSON County, KY

TODAY
Mostly sunny. Highs in the lower 50s. Southwest winds 10 to 15 mph.

TONIGHT
Partly cloudy. Lows in the mid 30s. South winds 5 to 10 mph.

SUNDAY
Periods of rain showers. Highs in the upper 40s. South winds 5 to 10 mph. Chance of showers 90 percent.

SUNDAY NIGHT
Cloudy. Lows in the lower 40s. South winds 5 to 10 mph.

MONDAY
Mostly cloudy. Highs in the upper 50s. Southwest winds 5 to 10 mph.

MONDAY NIGHT
Partly cloudy. Lows in the mid 40s.

TUESDAY
Partly cloudy with a 20 percent chance of showers. Highs in the upper 50s.

TUESDAY NIGHT
Partly cloudy with a 20 percent chance of rain showers. Lows in the upper 30s.

WEDNESDAY
Partly cloudy with a 40 percent chance of rain showers. Highs in the mid 50s.

WEDNESDAY NIGHT
Partly cloudy. Lows in the upper 30s.

THURSDAY
Partly cloudy. Highs in the upper 50s.

THURSDAY NIGHT
Partly cloudy with a 40 percent chance of showers. Lows in the lower 40s.

FRIDAY
Mostly cloudy with a 50 percent chance of showers. Highs in the mid 50s.

Ag Weather Center, Department of Biosystems & Agricultural Engineering, University of Kentucky